{"data":{"norad_id":62238,"intl_designator":"2024-232B","name":"QIANFAN-37","alt_names":[],"object_type":"PAYLOAD","status":"ACTIVE","operator":null,"country":"PRC","launch_date":"2024-12-05","launch_site_code":"TAISC","launch_vehicle":null,"mission":null,"orbit_class":"UNKNOWN","rcs_meters":null,"size_class":null,"mass_kg":null,"dimensions":null,"purposes":[],"wikipedia_slug":null,"has_3d_model":false,"image_url":null,"decayed_at":null,"tle_current":{"epoch":"2026-09-22T21:00:54.062208Z","epoch_age_seconds":104968,"freshness":"FRESH","line1":"1 62238U 24232B   26265.87562572  .00000097  00000+0  13198-3 0  9997","line2":"2 62238  89.0160  12.8032 0001839  87.6857 272.4505 13.51031126137532","mean_motion":13.51031126,"eccentricity":0.0001839,"inclination_deg":89.016,"raan_deg":12.8032,"arg_perigee_deg":87.6857,"mean_anomaly_deg":272.4505,"bstar":0.00013198,"rev_number":13753,"period_min":106.58525716305,"perigee_km":1067.0977791511,"apogee_km":1069.8366401794,"semimajor_km":7446.6042096653,"source":"CELESTRAK","updated_at":"2026-09-23T09:00:21.306371Z"}}}